Flag for Mauritania Weather past 2 weeks in Nouakchott, Mauritania

Now
84 °F

Broken clouds.


Feels Like: 91 °F
Forecast: N/A
Wind: 14 mph from Southwest

Location: Nouakchott Airport

Current Time: Sep 19, 2014 at 2:33:03 PM

Latest Report: Sep 19, 2014 at 2:00 PM


Visibility: 4 mi

Pressure: 29.89 "Hg

Humidity: 70%

Dew point: 73 °F

Location of NouakchottLocation

Historic Weather in Nouakchott — Graph

°F

Nouakchott temperature yesterday

Maximum temperature yesterday: 97 °F (at 2:00 PM)
Minimum temperature yesterday: 81 °F (at 2:30 AM)
Average temperature yesterday: 86 °F

Past Weeks' High & Low Weather Summary

 TemperatureHumidityPressure
High100 °F (Sep 4, 2:00 PM)94% (Sep 9, 6:30 AM)30.09 "Hg (Sep 9, 6:30 AM)
Low72 °F (Sep 12, 11:00 PM)31% (Sep 4, 2:00 PM)29.71 "Hg (Sep 6, 4:30 PM)
Average85 °F71%29.86 "Hg
* Reported Sep 4 1:00 PM — Sep 19 1:30 PM, Nouakchott, Weather by CustomWeather, © 2014

Note: Actual official high and low records may vary slightly from our data, if they occured in-between our weather recording intervals... More about our weather records

Advertising

Nouakchott weather history for previous 24 hours

 ConditionsComfort  
Time TempWeatherWind HumidityBarometerVisibility
1:30 PM
Sep 19
84 °FBroken clouds.15 mph70%29.89 "Hg4 mi
1:00 PM82 °FBroken clouds.14 mph74%29.92 "Hg4 mi
12:30 PM82 °FThunderstorms. Broken clouds.13 mph74%29.92 "Hg4 mi
12:00 PM81 °FThunderstorms. Broken clouds.12 mph84%29.95 "Hg4 mi
11:30 AM79 °FThunderstorms. Partly sunny.16 mph89%29.95 "Hg2 mi
11:00 AM86 °FLight rain. Partly sunny.14 mph70%29.95 "Hg4 mi
10:30 AM86 °FBroken clouds.13 mph75%29.92 "Hg4 mi
10:00 AM86 °FBroken clouds.10 mph75%29.92 "Hg4 mi
9:30 AM84 °FPartly sunny.7 mph79%29.92 "Hg4 mi
9:00 AM84 °FPartly sunny.7 mph79%29.92 "Hg4 mi
8:30 AM84 °FClear.7 mph79%29.89 "Hg4 mi
8:00 AM84 °FClear.5 mph79%29.86 "Hg4 mi
7:30 AM82 °FBroken clouds.6 mph79%29.83 "Hg5 mi
7:00 AM82 °FBroken clouds.6 mph79%29.83 "Hg5 mi
6:30 AM82 °FClear.6 mph79%29.83 "Hg5 mi
6:00 AM82 °FClear.3 mph79%29.80 "Hg5 mi
5:30 AM82 °FClear.5 mph79%29.80 "Hg5 mi
5:00 AM82 °FClear.5 mph79%29.80 "Hg5 mi
4:30 AM82 °FClear.6 mph74%29.77 "Hg5 mi
4:00 AM82 °FClear.5 mph74%29.77 "Hg5 mi
3:30 AM82 °FClear.3 mph74%29.77 "Hg5 mi
3:00 AM82 °FClear.1 mph70%29.77 "Hg5 mi
2:30 AM82 °FClear.3 mph70%29.77 "Hg5 mi
2:00 AM81 °FClear.2 mph74%29.80 "Hg5 mi
1:30 AM81 °FClear.5 mph70%29.80 "Hg5 mi
1:00 AM81 °FClear.3 mph70%29.83 "Hg5 mi
12:30 AM81 °FThunderstorms. Passing clouds.3 mph70%29.86 "Hg5 mi
12:00 AM81 °FThunderstorms. Passing clouds.8 mph66%29.89 "Hg5 mi
11:30 PM
Sep 18
81 °FThunderstorms. Passing clouds.8 mph70%29.89 "Hg5 mi
11:00 PM81 °FThunderstorms. Passing clouds.15 mph70%29.95 "Hg4 mi
10:30 PM84 °FThunderstorms. Passing clouds.14 mph70%29.95 "Hg4 mi
10:00 PM84 °FThunderstorms. Passing clouds.8 mph70%29.86 "Hg5 mi
9:30 PM84 °FThunderstorms. Passing clouds.12 mph74%29.86 "Hg5 mi
9:00 PM84 °FThunderstorms. Passing clouds.9 mph79%29.83 "Hg5 mi
8:30 PM84 °FThunderstorms. Passing clouds.10 mph79%29.80 "Hg5 mi
8:00 PM84 °FThunderstorms. Passing clouds.9 mph79%29.80 "Hg5 mi
7:30 PM84 °FPassing clouds.10 mph74%29.80 "Hg5 mi
7:00 PM86 °FPassing clouds.8 mph70%29.77 "Hg5 mi
6:30 PM86 °FPassing clouds.12 mph70%29.77 "Hg5 mi
6:00 PM88 °FPassing clouds.12 mph62%29.77 "Hg5 mi
5:30 PM90 °FScattered clouds.12 mph59%29.77 "Hg5 mi
5:00 PM91 °FScattered clouds.13 mph56%29.77 "Hg5 mi
4:30 PM93 °FClear.15 mph44%29.77 "Hg5 mi
4:00 PM95 °FClear.12 mph41%29.80 "Hg5 mi
3:30 PM95 °FClear.13 mph39%29.80 "Hg5 mi
3:00 PM97 °FClear.9 mph37%29.80 "Hg5 mi
2:30 PM97 °FClear.10 mph37%29.83 "Hg5 mi
2:00 PM97 °FClear.9 mph37%29.83 "Hg5 mi
Weather by CustomWeather, © 2014

See weather overviewHow to use our weather pages